| time (UTC) | temp F | wind direction | speed MPH | gust MPH | rain 1hr in | rain 24hr in | rain mn in | humidity % | barometer mb |
| 20260505002118 | 55 | 97 | 0.0 | 2.0 | 0.00 | 0.00 | 0.00 | 67 | 1011.8 |
| 20260505001615 | 56 | 92 | 0.0 | 0.0 | 0.00 | 0.00 | 0.00 | 66 | 1011.6 |
| 20260505001113 | 56 | 89 | 1.0 | 2.0 | 0.00 | 0.00 | 0.00 | 65 | 1011.3 |
| 20260505000610 | 56 | 83 | 0.0 | 2.0 | 0.00 | 0.00 | 0.00 | 64 | 1011.3 |
| 20260505000107 | 56 | 111 | 0.0 | 0.0 | 0.00 | 0.00 | 0.00 | 63 | 1011.4 |
| 20260504235603 | 56 | 69 | 0.0 | 2.0 | 0.00 | 0.00 | 0.00 | 63 | 1011.1 |
| 20260504235100 | 57 | 105 | 0.0 | 0.0 | 0.00 | 0.00 | 0.00 | 62 | 1011.2 |
| 20260504234557 | 57 | 121 | 2.0 | 3.0 | 0.00 | 0.00 | 0.00 | 61 | 1011.0 |
| 20260504234054 | 57 | 90 | 0.0 | 6.0 | 0.00 | 0.00 | 0.00 | 59 | 1011.1 |
| 20260504233549 | 57 | 110 | 0.0 | 4.0 | 0.00 | 0.00 | 0.00 | 58 | 1011.0 |
| 20260504233047 | 58 | 54 | 0.0 | 1.0 | 0.00 | 0.00 | 0.00 | 57 | 1011.1 |
| 20260504232544 | 58 | 166 | 3.0 | 4.0 | 0.00 | 0.00 | 0.00 | 56 | 1011.0 |
| 20260504232041 | 59 | 177 | 2.0 | 4.0 | 0.00 | 0.00 | 0.00 | 55 | 1010.9 |
| 20260504231537 | 59 | 308 | 0.0 | 2.0 | 0.00 | 0.00 | 0.00 | 54 | 1010.8 |
| 20260504231033 | 60 | 229 | 0.0 | 3.0 | 0.00 | 0.00 | 0.00 | 53 | 1010.7 |
| 20260504230530 | 60 | 96 | 0.0 | 1.0 | 0.00 | 0.00 | 0.00 | 51 | 1010.8 |
| 20260504230029 | 60 | 137 | 1.0 | 2.0 | 0.00 | 0.00 | 0.00 | 51 | 1010.8 |
| 20260504225526 | 60 | 107 | 0.0 | 2.0 | 0.00 | 0.00 | 0.00 | 50 | 1010.8 |
| 20260504225023 | 61 | 85 | 1.0 | 2.0 | 0.00 | 0.00 | 0.00 | 50 | 1010.9 |
| 20260504224519 | 61 | 90 | 0.0 | 1.0 | 0.00 | 0.00 | 0.00 | 49 | 1010.9 |
| 20260504224017 | 61 | 129 | 1.0 | 3.0 | 0.00 | 0.00 | 0.00 | 48 | 1010.7 |
| 20260504223513 | 62 | 85 | 1.0 | 1.0 | 0.00 | 0.00 | 0.00 | 47 | 1010.7 |
| 20260504223009 | 62 | 277 | 1.0 | 4.0 | 0.00 | 0.00 | 0.00 | 46 | 1010.5 |
| 20260504222507 | 62 | 125 | 1.0 | 3.0 | 0.00 | 0.00 | 0.00 | 45 | 1010.3 |
| 20260504222004 | 62 | 101 | 0.0 | 4.0 | 0.00 | 0.00 | 0.00 | 45 | 1010.3 |
| 20260504221501 | 63 | 102 | 1.0 | 4.0 | 0.00 | 0.00 | 0.00 | 44 | 1010.4 |
| 20260504220957 | 63 | 130 | 5.0 | 8.0 | 0.00 | 0.00 | 0.00 | 44 | 1010.5 |
| 20260504220454 | 63 | 6 | 1.0 | 15.0 | 0.00 | 0.00 | 0.00 | 43 | 1010.4 |
| 20260504215951 | 63 | 95 | 1.0 | 2.0 | 0.00 | 0.00 | 0.00 | 44 | 1010.4 |
| 20260504215447 | 64 | 255 | 1.0 | 3.0 | 0.00 | 0.00 | 0.00 | 44 | 1010.4 |
| 20260504214945 | 64 | 42 | 1.0 | 2.0 | 0.00 | 0.00 | 0.00 | 43 | 1010.5 |
| 20260504214441 | 64 | 62 | 2.0 | 9.0 | 0.00 | 0.00 | 0.00 | 42 | 1010.4 |
| 20260504213937 | 64 | 119 | 0.0 | 3.0 | 0.00 | 0.00 | 0.00 | 43 | 1010.4 |
| 20260504213433 | 64 | 168 | 2.0 | 7.0 | 0.00 | 0.00 | 0.00 | 42 | 1010.5 |
| 20260504212932 | 65 | 74 | 0.0 | 4.0 | 0.00 | 0.00 | 0.00 | 41 | 1010.5 |
| 20260504212426 | 65 | 8 | 2.0 | 4.0 | 0.00 | 0.00 | 0.00 | 42 | 1010.3 |
| 20260504211925 | 65 | 80 | 0.0 | 3.0 | 0.00 | 0.00 | 0.00 | 42 | 1010.3 |
| 20260504211420 | 65 | 115 | 1.0 | 3.0 | 0.00 | 0.00 | 0.00 | 42 | 1010.4 |
| 20260504210918 | 65 | 96 | 1.0 | 3.0 | 0.00 | 0.00 | 0.00 | 43 | 1010.5 |
| 20260504210415 | 65 | 65 | 5.0 | 8.0 | 0.00 | 0.00 | 0.00 | 42 | 1010.3 |
| 20260504205912 | 65 | 52 | 1.0 | 8.0 | 0.00 | 0.00 | 0.00 | 41 | 1010.2 |
| 20260504205410 | 65 | 195 | 8.0 | 15.0 | 0.00 | 0.00 | 0.00 | 41 | 1010.0 |
| 20260504204907 | 66 | 350 | 7.0 | 14.0 | 0.00 | 0.00 | 0.00 | 41 | 1010.2 |
| 20260504204406 | 66 | 103 | 2.0 | 3.0 | 0.00 | 0.00 | 0.00 | 41 | 1010.2 |
| 20260504203905 | 66 | 318 | 2.0 | 7.0 | 0.00 | 0.00 | 0.00 | 41 | 1010.0 |
| 20260504203401 | 66 | 277 | 3.0 | 7.0 | 0.00 | 0.00 | 0.00 | 40 | 1010.0 |
| 20260504202857 | 67 | 102 | 2.0 | 4.0 | 0.00 | 0.00 | 0.00 | 40 | 1010.4 |
| 20260504202354 | 67 | 94 | 0.0 | 3.0 | 0.00 | 0.00 | 0.00 | 40 | 1010.0 |
| 20260504201851 | 68 | 137 | 0.0 | 6.0 | 0.00 | 0.00 | 0.00 | 39 | 1010.1 |
| 20260504201348 | 68 | 123 | 2.0 | 9.0 | 0.00 | 0.00 | 0.00 | 39 | 1010.0 |
| 20260504200846 | 68 | 57 | 1.0 | 4.0 | 0.00 | 0.00 | 0.00 | 38 | 1010.0 |
| 20260504200342 | 67 | 312 | 1.0 | 4.0 | 0.00 | 0.00 | 0.00 | 38 | 1010.2 |
| 20260504195839 | 67 | 114 | 2.0 | 3.0 | 0.00 | 0.00 | 0.00 | 38 | 1010.1 |
| 20260504195335 | 67 | 298 | 2.0 | 7.0 | 0.00 | 0.00 | 0.00 | 37 | 1009.9 |
| 20260504194832 | 67 | 321 | 3.0 | 4.0 | 0.00 | 0.00 | 0.00 | 38 | 1010.1 |
| 20260504194327 | 68 | 54 | 2.0 | 4.0 | 0.00 | 0.00 | 0.00 | 37 | 1010.1 |
| 20260504193823 | 68 | 50 | 2.0 | 9.0 | 0.00 | 0.00 | 0.00 | 39 | 1010.0 |
| 20260504193321 | 68 | 94 | 4.0 | 6.0 | 0.00 | 0.00 | 0.00 | 36 | 1010.1 |
| 20260504192820 | 68 | 154 | 0.0 | 4.0 | 0.00 | 0.00 | 0.00 | 37 | 1010.2 |
| 20260504192317 | 68 | 57 | 2.0 | 6.0 | 0.00 | 0.00 | 0.00 | 35 | 1010.1 |
| 20260504191815 | 68 | 177 | 3.0 | 9.0 | 0.00 | 0.00 | 0.00 | 36 | 1010.3 |
| 20260504191313 | 68 | 84 | 0.0 | 8.0 | 0.00 | 0.00 | 0.00 | 36 | 1010.2 |
| 20260504190809 | 67 | 189 | 4.0 | 11.0 | 0.00 | 0.00 | 0.00 | 36 | 1010.2 |
| 20260504190304 | 67 | 87 | 2.0 | 3.0 | 0.00 | 0.00 | 0.00 | 34 | 1010.2 |
| 20260504185801 | 68 | 17 | 1.0 | 7.0 | 0.00 | 0.00 | 0.00 | 34 | 1010.2 |
| 20260504185258 | 68 | 104 | 1.0 | 9.0 | 0.00 | 0.00 | 0.00 | 34 | 1010.3 |
| 20260504184754 | 68 | 134 | 3.0 | 10.0 | 0.00 | 0.00 | 0.00 | 33 | 1010.4 |
| 20260504184250 | 68 | 162 | 4.0 | 6.0 | 0.00 | 0.00 | 0.00 | 33 | 1010.6 |
| 20260504183746 | 69 | 77 | 3.0 | 7.0 | 0.00 | 0.00 | 0.00 | 32 | 1010.3 |
| 20260504183243 | 68 | 0 | 2.0 | 4.0 | 0.00 | 0.00 | 0.00 | 31 | 1010.4 |
| 20260504182741 | 68 | 70 | 1.0 | 7.0 | 0.00 | 0.00 | 0.00 | 32 | 1010.6 |
| 20260504182238 | 68 | 327 | 1.0 | 3.0 | 0.00 | 0.00 | 0.00 | 33 | 1010.6 |
| 20260504181736 | 68 | 143 | 2.0 | 10.0 | 0.00 | 0.00 | 0.00 | 32 | 1010.7 |
| 20260504181232 | 69 | 114 | 4.0 | 6.0 | 0.00 | 0.00 | 0.00 | 30 | 1010.6 |
| 20260504180732 | 68 | 145 | 2.0 | 7.0 | 0.00 | 0.00 | 0.00 | 31 | 1010.7 |
| 20260504180231 | 68 | 81 | 1.0 | 7.0 | 0.00 | 0.00 | 0.00 | 33 | 1010.8 |
| 20260504175727 | 69 | 144 | 2.0 | 4.0 | 0.00 | 0.00 | 0.00 | 31 | 1010.8 |
| 20260504175223 | 69 | 103 | 0.0 | 8.0 | 0.00 | 0.00 | 0.00 | 29 | 1010.6 |
| 20260504174722 | 69 | 43 | 1.0 | 6.0 | 0.00 | 0.00 | 0.00 | 30 | 1011.0 |
| 20260504174220 | 68 | 97 | 1.0 | 6.0 | 0.00 | 0.00 | 0.00 | 33 | 1010.8 |
| 20260504173716 | 69 | 71 | 1.0 | 11.0 | 0.00 | 0.00 | 0.00 | 29 | 1010.9 |
| 20260504173213 | 69 | 117 | 2.0 | 6.0 | 0.00 | 0.00 | 0.00 | 30 | 1010.9 |
| 20260504172709 | 69 | 108 | 1.0 | 2.0 | 0.00 | 0.00 | 0.00 | 30 | 1011.0 |
| 20260504172206 | 68 | 86 | 1.0 | 6.0 | 0.00 | 0.00 | 0.00 | 29 | 1011.0 |
| 20260504171702 | 69 | 315 | 3.0 | 3.0 | 0.00 | 0.00 | 0.00 | 31 | 1011.1 |
| 20260504171200 | 68 | 111 | 0.0 | 6.0 | 0.00 | 0.00 | 0.00 | 31 | 1010.9 |
| 20260504170656 | 68 | 27 | 0.0 | 3.0 | 0.00 | 0.00 | 0.00 | 32 | 1011.1 |
| 20260504170154 | 68 | 337 | 3.0 | 4.0 | 0.00 | 0.00 | 0.00 | 30 | 1011.0 |
| 20260504160112 | 68 | 77 | 0.0 | 3.0 | 0.00 | 0.00 | 0.00 | 34 | 1011.6 |
| 20260504151045 | 67 | 8 | 0.0 | 4.0 | 0.00 | 0.00 | 0.00 | 33 | 1011.9 |
| 20260504150542 | 67 | 3 | 3.0 | 8.0 | 0.00 | 0.00 | 0.00 | 34 | 1011.8 |
| 20260504141008 | 63 | 100 | 0.0 | 6.0 | 0.00 | 0.00 | 0.00 | 37 | 1012.5 |
| 20260504140505 | 63 | 113 | 2.0 | 3.0 | 0.00 | 0.00 | 0.00 | 38 | 1012.7 |
| 20260504130429 | 59 | 30 | 1.0 | 1.0 | 0.00 | 0.00 | 0.00 | 43 | 1012.9 |
| 20260504110317 | 46 | 137 | 2.0 | 2.0 | 0.00 | 0.00 | 0.00 | 67 | 1013.2 |
| 20260504100234 | 37 | 96 | 0.0 | 0.0 | 0.00 | 0.00 | 0.00 | 86 | 1013.0 |
| 20260504081628 | 39 | 87 | 0.0 | 0.0 | 0.00 | 0.00 | 0.00 | 86 | 1012.5 |
| 20260504081123 | 39 | 87 | 0.0 | 0.0 | 0.00 | 0.00 | 0.00 | 87 | 1012.6 |
| 20260504080620 | 39 | 87 | 0.0 | 0.0 | 0.00 | 0.00 | 0.00 | 87 | 1012.6 |
| 20260504080117 | 38 | 78 | 0.0 | 0.0 | 0.00 | 0.00 | 0.00 | 86 | 1012.6 |
| 20260504050433 | 36 | 80 | 0.0 | 0.0 | 0.00 | 0.00 | 0.00 | 83 | 1012.6 |
| 20260504045930 | 36 | 80 | 0.0 | 0.0 | 0.00 | 0.00 | 0.00 | 84 | 1012.5 |
| 20260504045425 | 37 | 80 | 0.0 | 0.0 | 0.00 | 0.00 | 0.00 | 85 | 1012.7 |
| 20260504044916 | 37 | 80 | 0.0 | 0.0 | 0.00 | 0.00 | 0.00 | 86 | 1012.7 |
| 20260504044414 | 37 | 80 | 0.0 | 0.0 | 0.00 | 0.00 | 0.00 | 86 | 1012.7 |
| 20260504043912 | 37 | 80 | 0.0 | 0.0 | 0.00 | 0.00 | 0.00 | 86 | 1012.6 |
| 20260504043408 | 37 | 80 | 0.0 | 0.0 | 0.00 | 0.00 | 0.00 | 85 | 1012.6 |
| 20260504042906 | 37 | 80 | 0.0 | 0.0 | 0.00 | 0.00 | 0.00 | 84 | 1012.6 |
| 20260504042402 | 37 | 80 | 0.0 | 0.0 | 0.00 | 0.00 | 0.00 | 84 | 1012.4 |
| 20260504041859 | 37 | 80 | 0.0 | 0.0 | 0.00 | 0.00 | 0.00 | 84 | 1012.4 |
| 20260504041355 | 37 | 80 | 0.0 | 0.0 | 0.00 | 0.00 | 0.00 | 83 | 1012.5 |
| 20260504040851 | 37 | 80 | 0.0 | 0.0 | 0.00 | 0.00 | 0.00 | 83 | 1012.6 |
| 20260504040349 | 37 | 76 | 0.0 | 0.0 | 0.00 | 0.00 | 0.00 | 83 | 1012.4 |
| 20260504035844 | 37 | 76 | 0.0 | 0.0 | 0.00 | 0.00 | 0.00 | 83 | 1012.3 |
| 20260504035342 | 37 | 75 | 0.0 | 0.0 | 0.00 | 0.00 | 0.00 | 82 | 1012.5 |
| 20260504034839 | 37 | 75 | 0.0 | 0.0 | 0.00 | 0.00 | 0.00 | 81 | 1012.3 |
| 20260504034336 | 37 | 75 | 0.0 | 0.0 | 0.00 | 0.00 | 0.00 | 81 | 1012.5 |
| 20260504033833 | 37 | 75 | 0.0 | 0.0 | 0.00 | 0.00 | 0.00 | 79 | 1012.3 |
| 20260504033331 | 38 | 75 | 0.0 | 0.0 | 0.00 | 0.00 | 0.00 | 78 | 1012.2 |
| 20260504032827 | 38 | 75 | 0.0 | 0.0 | 0.00 | 0.00 | 0.00 | 77 | 1012.2 |
| 20260504032325 | 38 | 75 | 0.0 | 0.0 | 0.00 | 0.00 | 0.00 | 76 | 1012.2 |
| 20260504031821 | 38 | 75 | 0.0 | 0.0 | 0.00 | 0.00 | 0.00 | 76 | 1012.1 |
| 20260504031319 | 38 | 72 | 0.0 | 0.0 | 0.00 | 0.00 | 0.00 | 77 | 1012.3 |
| 20260504030815 | 38 | 73 | 0.0 | 0.0 | 0.00 | 0.00 | 0.00 | 77 | 1012.0 |
| 20260504030313 | 38 | 73 | 0.0 | 0.0 | 0.00 | 0.00 | 0.00 | 75 | 1012.1 |
| 20260504025808 | 38 | 78 | 0.0 | 0.0 | 0.00 | 0.00 | 0.00 | 75 | 1012.2 |
| 20260504025306 | 38 | 77 | 0.0 | 0.0 | 0.00 | 0.00 | 0.00 | 74 | 1012.0 |
| 20260504024802 | 39 | 74 | 0.0 | 0.0 | 0.00 | 0.00 | 0.00 | 75 | 1012.0 |
| 20260504024258 | 39 | 74 | 0.0 | 0.0 | 0.00 | 0.00 | 0.00 | 76 | 1012.1 |
| 20260504023755 | 39 | 74 | 0.0 | 0.0 | 0.00 | 0.00 | 0.00 | 76 | 1012.1 |
| 20260504023252 | 39 | 72 | 0.0 | 0.0 | 0.00 | 0.00 | 0.00 | 77 | 1011.9 |
| 20260504022748 | 38 | 72 | 0.0 | 1.0 | 0.00 | 0.00 | 0.00 | 77 | 1011.9 |
| 20260504022244 | 39 | 95 | 0.0 | 0.0 | 0.00 | 0.00 | 0.00 | 76 | 1011.9 |
| 20260504021741 | 39 | 95 | 0.0 | 0.0 | 0.00 | 0.00 | 0.00 | 75 | 1011.9 |
| 20260504021239 | 39 | 95 | 0.0 | 0.0 | 0.00 | 0.00 | 0.00 | 75 | 1011.9 |
| 20260504020735 | 40 | 90 | 0.0 | 0.0 | 0.00 | 0.00 | 0.00 | 73 | 1011.9 |
| 20260504020232 | 40 | 90 | 0.0 | 0.0 | 0.00 | 0.00 | 0.00 | 73 | 1011.9 |
| 20260504015728 | 40 | 90 | 0.0 | 0.0 | 0.00 | 0.00 | 0.00 | 72 | 1011.8 |
| 20260504015225 | 41 | 90 | 0.0 | 0.0 | 0.00 | 0.00 | 0.00 | 69 | 1012.0 |
| 20260504014720 | 41 | 90 | 0.0 | 0.0 | 0.00 | 0.00 | 0.00 | 69 | 1011.8 |
| 20260504014217 | 41 | 90 | 0.0 | 0.0 | 0.00 | 0.00 | 0.00 | 67 | 1011.7 |
| 20260504013715 | 41 | 90 | 0.0 | 0.0 | 0.00 | 0.00 | 0.00 | 68 | 1011.8 |
| 20260504013212 | 42 | 90 | 0.0 | 0.0 | 0.00 | 0.00 | 0.00 | 68 | 1011.5 |
| 20260504012709 | 42 | 90 | 0.0 | 0.0 | 0.00 | 0.00 | 0.00 | 68 | 1011.5 |
| 20260504012207 | 42 | 90 | 0.0 | 0.0 | 0.00 | 0.00 | 0.00 | 66 | 1011.6 |
| 20260504011704 | 42 | 90 | 0.0 | 0.0 | 0.00 | 0.00 | 0.00 | 65 | 1011.4 |
| 20260504011200 | 43 | 90 | 0.0 | 0.0 | 0.00 | 0.00 | 0.00 | 64 | 1011.3 |
| 20260504010656 | 43 | 90 | 0.0 | 0.0 | 0.00 | 0.00 | 0.00 | 63 | 1011.3 |
| 20260504010152 | 43 | 90 | 0.0 | 0.0 | 0.00 | 0.00 | 0.00 | 61 | 1011.1 |
| 20260504005649 | 43 | 90 | 0.0 | 0.0 | 0.00 | 0.00 | 0.00 | 59 | 1010.9 |
| 20260504005146 | 44 | 90 | 0.0 | 0.0 | 0.00 | 0.00 | 0.00 | 56 | 1010.9 |
| 20260504004644 | 44 | 90 | 0.0 | 0.0 | 0.00 | 0.00 | 0.00 | 55 | 1010.8 |
| 20260504004141 | 45 | 90 | 0.0 | 0.0 | 0.00 | 0.00 | 0.00 | 53 | 1010.7 |
| 20260504003637 | 45 | 90 | 0.0 | 0.0 | 0.00 | 0.00 | 0.00 | 53 | 1010.8 |
| 20260504003133 | 46 | 90 | 0.0 | 0.0 | 0.00 | 0.00 | 0.00 | 51 | 1011.0 |
| 20260504002630 | 46 | 90 | 0.0 | 0.0 | 0.00 | 0.00 | 0.00 | 51 | 1010.7 |